Voltar ao catálogo

DMSP 5D-3 F19 DEB

AtivoSSO
NORAD 39633·DEBRIS·🇺🇸 United States

Lançado Apr 3, 2014 de Vandenberg Space Force Base

Loading…

Próximas Passagens (próximas 24 horas)

TLE

AtualizadoSource: Space-Track

Época: Sep 14, 2026, 11:44 UTC

1 39633U 14015D   26257.48956880  .00001171  00000-0  50331-3 0  9990
2 39633  98.6725 269.3870 0004337 199.3497 160.7520 14.26589338644371

Acompanhe DMSP 5D-3 F19 DEB em tempo real com AllMySat

Download on the App Store